This demonstration page uses our WeatherBlox Daily Observations layout. Learn more.

Left ArrowRight Arrow

Hourly Observations for March 31, 2022

Temp ( °F °C ) Dew Point ( °F °C ) Humidity (%) Winds ( mph kmh ) Pressure ( in mb ) Visibility ( mi km ) Precip ( " mm )
12:15 am 00:15 Cloudy with Light Snow 30 -1 27 -3 86 86 NW 9 15 29.92 1013 2 3 0.00 0.00
12:35 am 00:35 Cloudy with Light Snow 30 -1 27 -3 86 86 NNW 12 19 29.92 1013 3 4 0.00 0.00
12:55 am 00:55 Cloudy 30 -1 27 -3 86 86 N 16 26 29.92 1013 10 16 0.00 0.00
1:15 am 01:15 Cloudy 30 -1 27 -3 86 86 N 13 20 29.92 1013 10 16 0.00 0.00
1:35 am 01:35 Cloudy 30 -1 27 -3 86 86 N 15 24 29.92 1013 10 16 0.00 0.00
1:55 am 01:55 Cloudy 30 -1 27 -3 86 86 N 18 30 29.93 1013 10 16 0.00 0.00
2:15 am 02:15 Cloudy 30 -1 25 -4 80 80 N 20 31 29.93 1013 10 16 0.00 0.00
2:35 am 02:35 Cloudy 30 -1 25 -4 80 80 N 14 22 29.93 1013 10 16 0.00 0.00
2:55 am 02:55 Cloudy 30 -1 25 -4 80 80 N 16 26 29.93 1013 10 16 0.00 0.00
3:15 am 03:15 Cloudy 30 -1 25 -4 80 80 N 14 22 29.92 1013 10 16 0.00 0.00
3:35 am 03:35 Cloudy 30 -1 25 -4 80 80 N 15 24 29.92 1013 10 16 0.00 0.00
3:55 am 03:55 Cloudy 30 -1 25 -4 80 80 N 14 22 29.91 1013 10 16 0.00 0.00
4:15 am 04:15 Cloudy 30 -1 25 -4 80 80 N 12 19 29.92 1013 10 16 0.00 0.00
4:35 am 04:35 Cloudy 30 -1 25 -4 80 80 N 16 26 29.92 1013 10 16 0.00 0.00
4:55 am 04:55 Cloudy 30 -1 23 -5 75 75 N 15 24 29.92 1013 10 16 0.00 0.00
5:15 am 05:15 Cloudy 30 -1 23 -5 75 75 N 12 19 29.92 1013 10 16 0.00 0.00
5:35 am 05:35 Cloudy 30 -1 25 -4 80 80 NNW 12 19 29.93 1013 10 16 0.00 0.00
5:55 am 05:55 Cloudy 30 -1 23 -5 75 75 NNW 14 22 29.92 1013 10 16 0.00 0.00
6:15 am 06:15 Cloudy 30 -1 23 -5 75 75 N 15 24 29.92 1013 10 16 0.00 0.00
6:35 am 06:35 Cloudy 28 -2 21 -6 74 74 N 15 24 29.94 1014 10 16 0.00 0.00
6:55 am 06:55 Cloudy 28 -2 21 -6 74 74 N 12 19 29.95 1014 10 16 0.00 0.00
7:15 am 07:15 Cloudy 27 -3 21 -6 80 80 NNW 12 19 29.96 1014 10 16 0.00 0.00
7:35 am 07:35 Partly Cloudy 27 -3 21 -6 80 80 NNW 9 15 29.97 1015 10 16 0.00 0.00
7:55 am 07:55 Sunny 25 -4 19 -7 80 80 NW 6 9 29.98 1015 10 16 0.00 0.00
8:15 am 08:15 Sunny 25 -4 21 -6 86 86 NNW 8 13 29.99 1015 10 16 0.00 0.00
8:35 am 08:35 Sunny 27 -3 21 -6 80 80 NNW 8 13 29.99 1015 10 16 0.00 0.00
8:55 am 08:55 Sunny 30 -1 23 -5 75 75 NNW 13 20 29.98 1015 10 16 0.00 0.00
9:15 am 09:15 Sunny 30 -1 23 -5 75 75 NNW 14 22 29.99 1015 10 16 0.00 0.00
9:35 am 09:35 Sunny 30 -1 23 -5 75 75 N 13 20 29.99 1015 10 16 0.00 0.00
9:55 am 09:55 Sunny 32 0 25 -4 75 75 N 13 20 29.98 1015 10 16 0.00 0.00
10:15 am 10:15 Sunny 32 0 25 -4 75 75 NNW 12 19 29.99 1015 10 16 0.00 0.00
10:35 am 10:35 Sunny 34 1 27 -3 75 75 N 12 19 29.98 1015 10 16 0.00 0.00
10:55 am 10:55 Sunny 34 1 27 -3 75 75 N 12 19 29.98 1015 10 16 0.00 0.00
11:15 am 11:15 Sunny 36 2 28 -2 75 75 NNW 10 17 29.98 1015 10 16 0.00 0.00
11:35 am 11:35 Sunny 36 2 27 -3 70 70 N 7 11 29.98 1015 10 16 0.00 0.00
11:55 am 11:55 Sunny 37 3 27 -3 65 65 NNW 10 17 29.97 1015 10 16 0.00 0.00
12:15 pm 12:15 Sunny 37 3 27 -3 65 65 NNW 8 13 29.96 1014 10 16 0.00 0.00
12:35 pm 12:35 Sunny 41 5 27 -3 57 57 N 9 15 29.94 1014 10 16 0.00 0.00
12:55 pm 12:55 Sunny 43 6 27 -3 53 53 N 9 15 29.92 1013 10 16 0.00 0.00
1:15 pm 13:15 Sunny 45 7 25 -4 46 46 N 8 13 29.91 1013 10 16 0.00 0.00
1:35 pm 13:35 Sunny 48 9 25 -4 40 40 NNE 9 15 29.89 1012 10 16 0.00 0.00
1:55 pm 13:55 Sunny 46 8 21 -6 37 37 NNE 7 11 29.90 1013 10 16 0.00 0.00
2:15 pm 14:15 Sunny 48 9 21 -6 34 34 NNW 5 7 29.88 1012 10 16 0.00 0.00
2:35 pm 14:35 Sunny 50 10 19 -7 30 30 NNW 9 15 29.87 1012 10 16 0.00 0.00
2:55 pm 14:55 Sunny 50 10 21 -6 32 32 N 10 17 29.86 1011 10 16 0.00 0.00
3:15 pm 15:15 Sunny 52 11 19 -7 28 28 NW 6 9 29.85 1011 10 16 0.00 0.00
3:35 pm 15:35 Sunny 52 11 19 -7 28 28 Calm 29.84 1011 10 16 0.00 0.00
3:55 pm 15:55 Sunny 54 12 19 -7 26 26 N 6 9 29.83 1010 10 16 0.00 0.00
4:15 pm 16:15 Sunny 54 12 18 -8 24 24 Calm 29.83 1010 10 16 0.00 0.00
4:35 pm 16:35 Sunny 54 12 16 -9 22 22 N 3 6 29.83 1010 10 16 0.00 0.00
4:55 pm 16:55 Sunny 54 12 18 -8 24 24 Calm 29.83 1010 10 16 0.00 0.00
5:15 pm 17:15 Sunny 54 12 18 -8 24 24 Calm 29.82 1010 10 16 0.00 0.00
5:35 pm 17:35 Sunny 54 12 16 -9 22 22 Calm 29.82 1010 10 16 0.00 0.00
5:55 pm 17:55 Sunny 55 13 18 -8 23 23 WSW 3 6 29.81 1010 10 16 0.00 0.00
6:15 pm 18:15 Sunny 54 12 14 -10 21 21 Calm 29.82 1010 10 16 0.00 0.00
6:35 pm 18:35 Sunny 54 12 16 -9 22 22 Calm 29.82 1010 10 16 0.00 0.00
6:55 pm 18:55 Sunny 54 12 18 -8 24 24 WNW 3 6 29.82 1010 10 16 0.00 0.00
7:15 pm 19:15 Sunny 54 12 18 -8 24 24 SSW 3 6 29.83 1010 10 16 0.00 0.00
7:35 pm 19:35 Sunny 52 11 16 -9 24 24 Calm 29.84 1011 10 16 0.00 0.00
7:55 pm 19:55 Sunny 52 11 16 -9 24 24 Calm 29.84 1011 10 16 0.00 0.00
8:15 pm 20:15 Clear 48 9 18 -8 29 29 Calm 29.86 1011 10 16 0.00 0.00
8:35 pm 20:35 Clear 45 7 18 -8 34 34 Calm 29.88 1012 10 16 0.00 0.00
8:55 pm 20:55 Clear 43 6 18 -8 36 36 Calm 29.90 1012 10 16 0.00 0.00
9:15 pm 21:15 Clear 41 5 18 -8 39 39 SSE 3 6 29.91 1013 10 16 0.00 0.00
9:35 pm 21:35 Clear 41 5 18 -8 39 39 Calm 29.91 1013 10 16 0.00 0.00
9:55 pm 21:55 Clear 37 3 18 -8 45 45 SE 3 6 29.94 1014 10 16 0.00 0.00
10:15 pm 22:15 Clear 37 3 18 -8 45 45 SE 3 6 29.93 1013 10 16 0.00 0.00
10:35 pm 22:35 Clear 37 3 18 -8 45 45 SSE 3 6 29.94 1014 10 16 0.00 0.00
10:55 pm 22:55 Clear 37 3 18 -8 45 45 SSE 5 7 29.94 1014 10 16 0.00 0.00
11:15 pm 23:15 Clear 36 2 18 -8 48 48 Calm 29.95 1014 10 16 0.00 0.00
11:35 pm 23:35 Clear 36 2 18 -8 48 48 Calm 29.95 1014 10 16 0.00 0.00
11:55 pm 23:55 Clear 36 2 18 -8 48 48 S 3 6 29.96 1014 10 16 0.00 0.00

Powered by AerisWeather